Reflectivity
-20 -20 -20 -20 -20 -20 -20 -20 -20 -20 -20 -20 -20 -20 -20 -20 -20 -20 -20 -20 -20 -20 -20 -20 -20 -20 -20 -20 -20 -20 -20 -20
-20 -20 -20 -20 -20 -20 -20 -20 -20 -20 -20 -20 -20 -20 -20 -20 35 -20 -20 -20 -20 -20 -20 -20 -20 -20 -20 -20 -20 -20 -20 -20
-20 -20 -20 -20 -20 -20 -20 -20 -20 -20 -20 -20 -20 -20 -20 -20 -20 -19 -13 -7 -15 -20 -20 -20 -20 -20 -20 -20 -20 -20 -20 -20
-20 -20 -20 -20 -20 -20 -20 -20 -20 -20 -20 -20 -20 -20 -20 -20 -20 -20 -20 -20 -20 -20 -20 -20 -20 -20 -20 -20 -20 -20 -20 -20
-20 -20 -20 -20 -20 -20 -20 -20 -20 -20 -20 -20 -20 -20 -20 -20 -20 -20 -20 -20 -20 -20 28 29 -19 -20 -20 -20 -20 -20 -20 -20
-20 -20 -20 -20 -20 -20 -20 -20 -20 -20 -20 -20 -20 -20 -20 -20 -20 -20 -20 -20 -20 -11 10 -18 5 -6 -11 -19 -20 -20 -18 -20
-20 -20 -20 -20 -20 -20 -20 -20 -20 -20 -20 -20 -20 -20 -20 -20 -20 -20 -20 -20 -20 -20 -20 -3 -2 15 -10 30 12 -3 -16 28
-20 -20 -20 -20 -20 -20 -20 -20 -20 -20 -20 -20 -20 -20 -20 -20 -20 -20 -20 -20 -20 -20 -20 -19 -20 -20 -8 -20 -7 25 16 -20
-20 -20 -20 -20 -20 -20 -20 -20 -20 -20 -20 -20 -20 -20 -20 -20 -20 -20 -20 -20 -20 -20 -20 -20 -20 -20 -20 -1 3 -19 -2 33
-20 -20 -20 -20 -20 -20 -20 -20 -20 -20 -20 -20 -20 -20 -20 -20 -20 -20 -20 -20 -20 -20 -20 -20 -20 -20 -20 -19 -0 15 -4 -8
-20 -20 -20 -20 -20 -20 -20 -20 -20 -20 -20 -20 -20 -20 -20 -20 -20 -20 -20 -20 -20 -20 -20 -20 -20 -20 -20 -3 -20 -9 -20 27
-20 -20 -20 -20 -20 -20 -20 -20 -20 -20 -20 -20 -20 -20 -20 -20 -20 -20 -3 -15 -20 -20 -20 -20 -20 -20 -20 -20 -19 -18 -4 -17
-20 -20 -20 -20 -20 -20 -20 -20 -20 -20 -20 -20 -20 -20 -20 -20 -20 -16 -13 -20 -4 -20 -13 -3 -20 -20 -20 -20 -20 -20 -20 -20
-20 -20 -20 -20 -20 -20 -20 -20 -20 -20 -20 -20 -20 -20 -20 -20 -20 -20 -15 -1 -4 -1 10 7 -3 -20 -17 -10 2 -20 -20 -20
-20 -20 -20 -20 -20 -20 -20 -20 -20 -20 -20 -20 -20 -20 -20 -11 -20 -5 -15 -20 -8 -14 1 -9 1 -5 -19 7 14 -14 -20 0
-20 -20 -20 -20 -20 -20 -20 -20 -20 -20 -20 -20 -20 -20 -20 -20 3 -15 -4 -6 -16 -13 6 4 17 3 -15 -20 -20 1 -20 10
-20 -20 -20 -20 -20 -20 -20 -20 -20 -20 -20 -20 -20 -20 -20 -20 -7 -20 -19 2 -6 -20 -20 -14 8 15 9 -20 -20 -20 -20 -11
-20 -20 -20 -20 -20 -20 -20 -20 -20 -20 -20 -20 -7 -4 -2 4 3 -2 1 1 1 -14 12 1 -19 6 10 16 -12 -20 -20 -5
-20 -20 -20 -20 -20 -20 -20 -20 -20 -20 -9 -8 -11 -9 -1 -2 1 -4 3 -3 5 3 5 17 8 10 11 10 12 10 -20 -20
-20 -20 -20 -20 -20 -20 -20 -20 -20 -20 -20 -18 -3 5 5 -0 3 -4 5 2 -0 0 5 -8 -2 -10 13 18 14 -16 -17 -7
Wind_Speed
6 7 10 10 12 13 10 12 12 12 12 11 15 12 10 9 9 9 9 10 10 9 9 10 9 9 9 9 9 9 8 8
7 6 7 6 5 10 7 9 8 11 13 14 17 14 12 9 11 10 12 12 11 12 10 10 10 10 10 10 9 9 8 10
6 8 8 7 5 7 7 9 11 12 10 15 11 8 9 10 14 14 10 10 10 11 11 11 11 11 11 11 10 6 8 8
8 8 9 9 8 6 6 7 6 7 7 10 6 6 8 11 10 15 13 10 10 11 12 12 10 7 7 14 6 9 8 9
9 8 8 8 7 5 4 4 5 4 8 7 7 7 6 6 6 6 7 6 5 7 8 7 11 8 9 8 10 11 8 8
9 8 8 7 6 6 7 6 4 5 7 7 6 6 7 7 6 9 9 7 9 6 4 8 10 12 12 12 10 11 8 8
8 8 8 7 7 5 5 4 4 5 6 6 7 6 7 8 8 8 8 8 8 8 5 5 8 9 12 16 14 12 10 9
7 8 7 8 7 8 6 5 6 5 5 5 6 6 6 7 8 9 9 9 9 10 10 8 5 9 10 11 15 14 12 8
7 7 8 9 7 7 5 5 5 6 5 7 7 6 8 9 8 8 10 11 13 10 12 12 7 6 11 11 10 13 14 10
7 8 9 9 7 5 5 5 5 5 6 7 8 11 12 10 9 9 11 11 11 11 12 10 10 9 6 8 9 10 15 15
7 8 10 9 7 6 6 7 5 6 6 6 10 9 9 9 8 9 11 10 10 10 11 11 11 10 10 7 9 9 11 13
7 8 9 8 7 7 7 6 7 6 6 6 11 9 11 10 9 10 9 9 10 10 12 11 11 12 12 11 8 9 9 10
8 8 9 8 8 7 7 8 7 7 7 13 11 13 13 11 8 10 10 10 10 11 11 12 11 11 11 10 11 12 13 10
8 9 10 9 7 6 7 7 7 8 9 10 13 14 13 11 10 10 11 10 12 11 11 10 9 9 8 11 7 7 9 12
8 8 9 8 10 7 7 7 7 8 9 9 11 12 12 11 11 10 11 10 9 11 11 13 11 9 11 6 5 5 6 5
7 7 9 9 10 9 11 8 7 8 9 9 9 12 12 12 12 12 11 9 11 10 10 11 10 10 9 9 13 11 7 6
5 6 9 8 9 10 8 9 7 7 8 11 12 10 12 12 13 13 12 9 11 12 13 12 10 10 9 10 12 10 11 9
5 6 9 8 9 10 11 11 11 9 11 9 9 9 9 12 13 12 12 12 12 12 12 13 11 11 10 11 11 10 8 8
5 8 8 9 9 10 10 11 12 12 11 9 11 9 10 13 14 13 11 13 13 12 12 12 11 11 12 10 11 11 12 12
8 8 8 9 9 10 9 11 7 7 9 9 8 9 10 14 13 13 14 15 14 12 9 10 12 10 13 11 11 12 12 12
Wind_Direction
42 36 27 19 61 28 20 17 11 5 4 7 352 325 302 291 282 281 274 261 253 250 252 261 258 253 247 246 253 261 267 279
27 39 33 3 21 28 5 11 13 8 4 18 347 339 353 297 270 266 250 249 246 242 238 240 242 244 243 242 238 249 258 269
60 36 28 357 16 6 17 8 18 5 6 12 354 353 334 334 327 317 307 278 251 248 244 235 229 230 233 234 229 233 240 238
44 38 20 359 13 355 15 10 23 352 11 358 341 339 327 328 318 323 285 272 266 260 244 238 226 236 228 223 219 221 230 242
31 38 25 10 352 360 13 4 16 331 11 328 352 339 350 333 330 322 323 319 302 286 261 242 235 228 233 234 210 218 224 235
29 35 18 14 343 12 358 357 343 13 327 346 359 353 339 342 332 335 326 326 323 310 296 281 265 240 234 234 224 210 214 223
33 28 22 7 358 3 353 330 359 341 344 338 4 341 340 333 328 323 318 315 306 296 277 299 302 284 260 250 247 243 227 223
34 32 25 14 356 4 340 346 2 339 331 352 351 339 327 330 333 324 320 317 318 320 309 303 279 289 283 264 253 260 250 234
29 36 33 17 357 351 333 355 348 334 333 352 340 344 348 346 324 321 328 343 327 317 317 309 272 257 275 273 260 251 260 259
36 28 29 11 355 342 349 341 349 346 353 337 348 7 346 341 340 336 337 327 326 322 314 298 294 289 261 275 277 261 252 247
31 32 26 3 356 360 347 3 351 355 342 347 1 343 4 8 341 328 320 310 308 309 303 299 302 289 289 261 262 269 262 251
31 32 24 3 12 1 4 352 356 343 345 346 7 347 358 351 327 317 316 316 306 303 309 310 304 305 292 289 269 264 268 255
36 31 26 19 13 355 357 357 342 347 349 7 358 7 351 352 343 336 328 316 309 305 304 297 298 305 315 286 266 256 249 246
41 34 33 23 8 6 3 343 356 5 5 1 8 352 356 347 350 337 330 321 313 307 307 307 285 286 287 305 286 282 250 239
48 48 42 30 12 17 4 1 5 7 4 0 350 356 352 349 346 335 327 315 304 302 298 285 290 287 272 262 301 256 322 205
52 56 51 33 31 22 17 11 9 7 4 352 354 350 349 349 349 343 332 322 310 306 298 294 290 281 296 278 256 278 282 316
58 55 59 40 38 37 23 20 11 5 3 358 356 350 349 352 349 345 336 328 324 316 310 302 294 284 263 276 292 279 274 255
45 30 59 40 40 40 30 22 16 14 9 2 354 350 350 356 356 352 344 339 328 316 309 293 282 281 282 271 261 267 279 284
35 36 45 51 44 43 33 28 22 18 11 1 357 354 354 359 2 358 353 344 337 334 333 335 324 315 294 268 273 264 262 268
43 42 29 45 43 45 38 32 29 19 15 9 358 356 359 1 3 4 0 358 353 354 353 349 343 338 334 330 312 255 260 264